User: anonymous   Login
Location: Unspecified
(0.0000°N, 0.0000°E)
Time: 03:30:31
(UTC+00:00)
Language:

ESTCUBE 1 - Orbit

View from above orbital plane
View from above orbital plane
View from above satellite
View from above satellite

Ground track
Ground track

The orbit data is extracted from the following two-line orbital elements,

1 39161U 13021C   18016.78563876  .00000123  00000-0  27493-4 0  9998
2 39161  98.0176 104.9059 0009567 173.6547 186.4772 14.72009462252178
Epoch (UTC): 16 January 2018 18:51:19
Eccentricity: 0.0009567
inclination: 98.0176°
perigee height: 648 km
apogee height: 661 km
right ascension of ascending node: 104.9059°
argument of perigee: 173.6547°
revolutions per day: 14.72009462
mean anomaly at epoch: 186.4772°
orbit number at epoch: 25217

The dashed part of the orbit path shows where the satellite is in the earth's shadow,  

DLR